Theta_e
310 310 309 309 309 309 309 309 310 310 311 312 311 311 309 303 302 306 310 306 313 309 310 314 313 310 310 310 312 314 315 319 321 323 322 322 323 322 324 328 328 327 325 324 323
307 308 309 309 308 309 309 308 309 310 311 311 311 311 307 306 309 312 306 307 314 314 313 312 310 308 309 312 312 313 313 315 319 321 322 322 322 321 323 323 326 327 326 324 323
308 308 308 309 309 309 308 310 310 311 310 312 311 310 304 309 313 319 320 311 315 314 312 310 309 309 309 312 312 313 314 315 316 316 319 322 321 321 322 320 322 326 326 323 321
308 309 309 309 309 308 307 307 310 311 311 311 311 307 307 312 321 316 311 316 315 311 307 312 313 313 309 309 311 313 314 315 316 317 317 317 318 317 320 319 319 324 326 322 321
308 309 309 308 307 306 307 309 310 311 312 312 309 304 311 316 318 316 309 308 308 308 313 314 315 309 310 310 311 311 312 314 316 316 316 316 317 317 318 321 324 323 325 322 320
307 308 308 306 305 306 307 309 307 306 309 309 305 307 314 318 319 316 310 311 312 314 316 317 316 309 309 309 309 310 311 312 313 312 312 315 316 315 318 319 324 324 324 323 322
304 306 307 305 306 306 308 310 306 304 301 301 303 312 313 312 316 312 314 315 316 317 317 316 314 313 311 311 311 312 312 311 313 314 314 314 314 315 316 322 323 325 324 323 322
298 304 305 305 306 307 309 309 309 304 303 304 305 314 310 309 315 315 317 317 316 316 314 314 313 312 312 311 311 311 311 312 311 314 314 313 314 314 314 315 319 324 323 323 323
299 303 305 305 306 307 309 310 311 312 305 306 312 313 317 319 318 317 317 316 316 315 314 313 312 311 310 309 307 308 310 311 311 313 313 314 314 314 314 314 315 323 323 324 323
302 301 306 306 306 308 310 310 313 314 313 313 314 315 317 321 314 314 314 315 314 312 311 311 308 309 306 306 309 310 311 311 311 312 313 312 312 313 313 313 314 314 322 322 324
304 304 303 307 307 308 309 310 313 317 314 319 320 318 319 318 316 313 313 313 312 311 310 310 309 309 310 309 310 310 311 311 312 314 313 312 312 312 312 312 314 312 312 314 319
305 305 303 307 307 307 309 311 315 313 311 316 318 319 319 318 316 315 315 312 312 311 310 310 310 311 312 313 313 312 311 312 313 314 313 312 311 312 312 314 312 312 313 314 316
306 305 303 307 310 309 312 313 315 316 314 316 317 317 318 318 318 315 313 312 312 311 310 310 312 313 314 313 314 312 313 313 314 314 313 312 312 312 313 313 313 313 313 315 317
306 306 306 305 309 311 309 315 316 316 319 322 319 317 317 313 314 314 314 313 311 311 310 309 310 313 312 313 312 312 312 313 313 313 311 313 313 312 313 313 313 312 311 311 314
307 306 306 302 307 310 315 317 317 317 329 323 315 314 312 313 315 315 315 312 312 311 311 311 312 311 312 312 313 312 312 312 313 311 310 311 311 312 311 313 313 312 312 311 310
307 306 308 307 312 316 316 316 317 322 331 320 315 314 313 313 314 314 314 312 312 310 310 310 311 312 311 313 312 312 312 311 310 308 310 310 311 312 312 312 314 314 314 314 314
310 308 311 305 312 314 315 315 321 327 325 322 321 314 313 313 313 314 313 312 311 311 311 312 312 312 313 312 312 311 308 309 309 310 312 310 312 312 312 314 316 315 315 315 314
310 310 315 305 306 312 315 317 324 323 324 322 317 316 316 316 316 316 316 313 311 311 312 314 315 314 314 313 313 310 309 313 314 313 313 315 318 316 315 315 316 316 315 313 313
311 310 315 315 311 313 311 318 322 323 319 318 317 316 316 316 315 315 315 315 313 311 313 313 315 315 315 315 314 315 315 310 318 322 321 318 315 314 314 315 316 316 314 313 314
308 311 316 318 319 315 313 317 317 318 315 316 318 317 317 316 315 314 315 317 317 317 314 314 316 314 315 314 313 315 314 317 320 323 324 320 319 317 313 316 315 316 317 315 312
306 312 319 319 317 312 315 317 318 315 315 316 317 317 316 316 315 316 316 316 318 315 313 315 315 316 314 314 313 314 315 318 316 319 325 322 315 311 316 315 316 316 314 313 315
304 306 314 317 314 315 319 317 313 315 314 315 315 315 315 315 314 315 316 317 316 315 315 314 313 315 315 313 313 316 317 316 316 317 322 323 322 315 314 313 314 314 316 314 314
307 307 315 314 314 314 314 315 315 315 315 311 314 312 311 314 314 315 314 314 313 315 315 314 313 316 316 312 313 317 318 317 317 318 319 323 317 315 316 316 315 314 315 314 315
304 314 312 313 312 311 313 315 316 315 313 311 310 310 310 310 310 312 312 312 312 316 319 314 314 315 318 318 317 318 317 317 318 317 316 319 317 315 316 318 316 315 312 312 314
306 312 308 310 308 308 311 314 314 313 311 310 310 310 309 308 309 310 310 310 310 313 315 313 316 316 316 317 317 318 317 317 318 316 318 315 317 316 316 316 315 315 315 315 314
305 306 305 308 309 311 311 310 312 311 311 311 309 309 307 307 308 309 309 309 310 310 309 311 313 316 317 315 315 316 315 314 313 313 313 314 315 317 316 315 315 314 316 316 315
303 304 304 307 311 311 312 312 311 310 309 308 307 307 308 308 308 307 307 307 307 308 307 308 310 311 311 313 314 312 311 315 317 317 318 318 319 317 316 316 315 315 314 315 316
Wind_Speed
19 18 18 17 16 16 16 16 16 16 16 16 15 14 14 15 17 12 7 9 6 5 9 7 5 5 2 3 3 1 2 4 5 4 9 2 5 5 6 11 15 4 8 9 16
19 19 18 17 17 17 17 16 15 15 14 14 14 13 12 13 16 12 12 10 10 6 4 3 3 1 1 4 2 4 4 6 6 4 8 20 5 8 3 7 10 16 5 7 27
19 19 18 18 18 17 16 16 15 14 13 13 13 12 10 11 4 7 4 12 8 11 8 4 5 1 3 1 5 5 5 4 7 10 12 22 12 7 6 9 11 15 11 6 9
20 20 19 19 18 17 15 15 15 14 13 12 11 10 11 3 2 4 2 10 9 9 7 4 3 3 3 4 5 4 7 9 11 13 13 12 19 11 6 9 8 13 8 9 10
21 20 19 18 16 16 15 15 15 14 12 11 8 6 3 2 8 6 6 8 9 8 7 3 2 3 3 3 3 6 7 11 17 16 15 16 19 16 14 7 7 7 7 11 7
21 21 19 17 14 14 14 15 13 11 10 7 4 4 0 2 4 9 10 11 8 10 5 5 6 8 5 4 4 5 7 8 8 10 7 12 19 7 15 10 9 9 9 9 10
24 21 19 15 13 13 15 14 12 11 8 3 2 2 2 10 4 9 12 9 10 13 4 12 7 2 2 5 3 4 5 7 4 4 5 3 8 10 6 6 8 8 8 8 11
27 22 18 14 12 13 14 14 10 8 6 4 2 1 6 5 9 11 14 16 14 17 13 7 6 2 2 3 8 5 2 3 6 4 6 7 13 13 11 5 9 11 9 9 10
26 23 18 15 14 14 14 13 10 7 5 2 2 2 9 11 4 13 19 16 13 15 13 6 2 2 4 3 5 4 4 6 8 7 6 5 15 9 10 10 8 10 10 10 9
28 25 19 16 15 16 17 18 8 5 1 1 3 3 6 4 8 13 11 14 2 2 3 1 4 2 4 4 4 6 4 6 6 6 2 8 12 12 10 10 17 11 12 10 12
32 27 18 16 16 18 19 6 3 1 4 7 5 5 10 6 16 6 9 3 1 3 2 4 3 7 12 9 10 7 7 11 10 5 1 5 9 12 10 10 17 12 8 8 10
36 29 20 15 15 17 14 1 6 1 8 14 15 15 22 13 5 5 9 4 4 6 2 5 6 14 10 13 9 11 10 7 6 4 5 8 11 14 6 7 8 9 8 9 8
39 27 21 16 16 10 6 13 16 18 4 8 9 6 8 8 12 9 9 6 6 4 7 6 11 9 9 11 10 9 6 4 6 5 4 5 8 8 7 5 7 6 6 7 12
39 28 21 17 6 7 7 16 16 4 4 6 5 6 6 5 5 15 14 9 5 10 9 6 7 5 8 6 4 4 5 5 7 2 3 4 7 8 6 7 7 9 8 8 8
38 32 24 12 12 4 9 22 17 3 3 5 4 6 7 9 4 4 20 5 12 9 5 12 7 9 7 7 7 8 8 6 4 4 2 1 2 10 7 13 11 10 11 9 11
41 35 22 7 5 8 18 19 4 4 4 4 4 5 5 6 6 2 7 4 3 6 5 11 5 6 10 12 8 7 3 2 3 1 6 6 6 14 13 7 7 6 10 14 19
46 30 14 8 5 8 17 4 4 2 7 2 8 4 6 4 9 7 7 6 8 3 7 12 13 11 7 8 14 3 4 5 5 4 14 5 5 13 12 8 11 7 14 19 18
50 28 11 10 7 8 8 4 2 4 5 11 8 5 3 3 5 7 5 13 8 3 2 5 8 8 9 6 7 9 9 8 8 6 11 2 6 7 8 10 5 5 14 11 8
52 24 9 4 5 4 5 2 4 2 12 13 6 4 4 8 1 6 4 6 6 9 6 4 5 1 3 1 3 3 1 5 1 3 3 4 7 10 12 10 5 5 11 13 7
36 13 9 5 7 3 4 4 3 5 11 7 3 4 5 7 5 6 3 5 8 6 2 4 4 3 1 4 3 5 3 1 2 4 6 7 10 10 8 5 9 5 6 12 17
11 4 3 12 9 4 3 5 4 10 10 6 4 6 5 3 3 4 5 13 5 8 5 3 3 5 1 4 5 3 2 4 4 4 2 3 5 5 2 3 3 2 6 8 3
5 3 4 9 1 1 2 2 5 7 7 4 4 3 4 6 4 4 6 6 15 12 7 3 2 4 7 7 2 1 3 5 4 4 2 4 6 14 5 7 7 7 1 3 2
5 3 9 5 1 3 5 5 3 8 9 5 4 8 7 5 5 7 7 10 14 11 4 2 2 4 8 6 6 5 2 2 3 3 7 3 5 5 10 6 10 6 7 5 4
3 3 4 3 3 5 5 5 7 8 7 6 3 6 9 8 6 6 10 5 10 9 10 4 1 5 5 6 4 10 11 5 3 3 4 9 15 16 10 8 13 9 10 8 6
1 2 3 3 3 9 4 5 10 9 9 6 3 8 10 5 9 6 8 8 6 2 1 4 1 3 5 7 9 12 10 15 13 15 9 16 13 16 2 5 5 7 9 6 7
3 3 4 3 9 15 9 7 12 11 7 4 6 11 12 8 9 12 6 4 5 2 3 1 3 3 4 9 12 13 14 20 15 10 11 16 18 2 2 5 5 6 6 10 10
8 7 1 4 2 2 3 9 15 9 7 10 13 12 13 14 9 9 11 10 9 7 3 5 5 3 4 6 4 8 7 5 2 6 5 5 3 3 4 5 6 3 5 6 6
Wind_Direction
332 328 326 327 324 322 322 320 318 316 313 311 311 310 309 316 313 308 248 226 169 218 237 280 280 266 256 224 213 112 86 215 215 205 260 308 349 319 240 233 235 176 158 182 104
330 329 327 323 323 320 320 319 319 319 317 315 314 311 312 322 317 265 254 213 226 224 201 217 281 277 243 201 226 152 173 223 217 226 271 285 221 272 281 283 238 229 95 132 94
333 330 326 323 321 319 320 319 318 318 318 318 316 314 318 331 293 252 290 201 211 221 234 246 245 49 258 170 223 206 203 222 261 251 255 273 278 264 243 267 223 235 173 164 103
334 329 327 324 320 321 323 322 319 318 318 318 318 318 324 320 209 281 233 203 213 225 197 181 166 165 224 219 230 249 263 235 254 246 258 263 279 270 226 240 268 217 140 140 138
337 333 329 324 323 323 326 323 321 320 317 317 317 338 39 252 251 216 173 173 183 179 209 155 174 178 218 230 281 179 244 251 252 252 253 256 262 260 245 231 261 173 125 140 147
342 337 332 328 330 329 333 332 331 327 322 317 323 358 185 278 282 192 170 173 180 193 199 180 232 223 257 250 161 266 259 258 249 253 250 257 269 256 259 217 216 202 160 162 164
351 344 339 336 331 333 337 342 348 353 349 340 12 38 275 239 216 184 184 219 218 223 198 230 217 51 131 317 198 274 298 315 270 245 240 224 287 258 252 189 232 226 198 186 192
359 354 347 339 331 331 336 336 334 348 349 343 11 96 250 247 208 240 231 258 258 260 237 305 322 106 83 313 351 340 25 299 288 308 266 140 263 272 276 217 215 224 211 190 193
359 354 348 337 328 328 329 328 306 320 324 312 95 112 271 311 210 225 223 224 255 240 234 254 99 172 343 70 0 348 249 276 298 258 264 186 274 250 258 264 248 214 209 216 210
356 353 343 336 327 326 327 322 291 284 318 325 272 311 277 236 217 232 236 245 248 49 342 190 51 53 3 82 226 236 241 259 240 287 267 292 275 284 276 253 249 216 223 217 223
354 347 339 333 328 323 329 330 25 69 212 209 203 238 289 309 178 196 224 222 115 41 264 287 94 234 239 206 228 233 250 261 277 236 252 254 265 273 269 278 243 242 200 250 236
357 345 335 327 325 316 316 210 235 238 292 226 236 237 256 265 281 216 215 161 148 229 294 357 255 251 242 257 228 240 240 252 265 281 298 287 284 287 261 257 222 217 228 211 174
356 350 334 321 322 311 285 260 313 309 286 286 215 218 228 203 230 236 167 198 190 220 257 198 249 272 237 257 254 253 223 243 255 292 306 317 292 302 302 276 295 234 214 200 176
357 352 337 321 318 315 270 339 346 198 17 277 191 229 196 188 263 220 200 174 188 211 245 240 264 299 317 295 288 235 231 262 290 319 254 79 290 290 289 301 286 277 277 248 201
356 353 337 308 301 280 320 338 335 66 335 182 189 190 162 170 184 231 212 162 202 212 149 250 267 282 299 263 273 248 236 237 238 247 92 88 273 270 303 286 269 283 285 260 216
354 349 334 287 253 295 337 334 333 52 265 221 142 183 145 209 237 226 181 180 183 206 223 238 234 181 239 267 262 258 227 30 47 114 273 221 183 285 276 263 299 267 287 291 287
352 347 320 221 225 335 337 7 46 161 300 43 356 170 222 246 246 231 206 198 195 176 243 252 252 255 245 252 273 251 78 293 294 279 265 258 244 253 278 260 247 299 318 294 264
349 349 328 269 254 285 344 55 193 271 320 343 360 331 198 11 338 355 331 230 234 210 196 216 278 214 235 186 215 232 199 221 257 250 276 316 235 254 237 262 265 301 349 314 230
344 343 304 348 191 257 70 83 222 288 356 339 330 312 341 344 35 12 318 273 195 183 210 228 244 195 251 264 98 282 238 174 105 48 333 279 292 303 283 286 244 62 36 343 27
338 324 281 206 166 114 80 234 264 355 349 322 330 307 297 307 315 326 287 277 337 333 43 273 310 187 257 7 335 163 192 237 90 211 250 239 257 250 301 327 289 119 95 12 3
338 348 300 161 162 57 172 237 284 353 18 326 290 277 280 328 333 313 277 303 328 339 336 259 212 280 134 187 214 346 343 76 124 180 204 290 260 243 194 238 295 173 117 112 123
5 334 5 162 35 244 211 250 330 328 328 287 316 313 328 289 257 294 268 309 313 331 317 326 185 218 230 234 208 95 155 136 146 241 228 239 269 261 325 290 180 153 124 186 147
322 261 333 221 257 343 313 308 268 326 329 35 342 5 3 4 352 340 349 339 21 358 328 340 345 356 344 355 19 27 6 87 107 115 199 225 250 251 317 344 308 290 177 228 227
341 330 331 33 42 0 331 293 340 345 331 21 316 350 343 328 337 294 300 328 7 31 32 39 97 179 235 240 273 295 294 222 174 209 219 222 270 273 287 301 329 287 288 274 202
70 302 354 333 339 321 291 354 339 7 14 333 311 358 334 304 311 295 330 326 326 114 81 107 196 225 245 254 264 274 284 287 223 232 224 261 244 258 262 293 303 317 338 302 268
29 16 343 291 333 336 357 4 349 352 332 311 328 315 309 281 280 289 280 220 224 275 119 18 250 210 247 249 252 250 245 243 264 274 261 260 257 108 196 274 309 330 6 25 27
351 344 60 279 201 0 255 308 318 342 302 332 317 306 297 285 271 240 230 233 233 225 178 185 167 177 261 232 308 289 244 220 289 348 8 306 352 296 279 318 301 341 0 343 359